N8LZG Weather Reports


Display with metric or nautical units.
time (UTC)temp
F
wind
direction
speed
MPH
gust
MPH
rain 1hr
in
rain 24hr
in
rain mn
in
humidity
%
barometer
mb
20260508204534 68 300 2.0 9.0 0.00 0.00 0.00 42 1010.0
20260508203039 68 309 1.0 9.0 0.00 0.00 0.00 45 1010.1
20260508201531 68 182 3.0 8.0 0.00 0.00 0.00 43 1010.2
20260508200031 68 315 2.0 12.0 0.00 0.00 0.00 40 1010.2
20260508194528 68 263 3.0 10.0 0.00 0.00 0.00 40 1010.5
20260508193028 70 9 2.0 10.0 0.00 0.00 0.00 40 1010.5
20260508191527 70 238 2.0 11.0 0.00 0.00 0.00 40 1010.6
20260508190023 69 313 4.0 11.0 0.00 0.00 0.00 37 1011.0
20260508184521 70 360 3.0 10.0 0.00 0.00 0.00 37 1011.3
20260508183019 69 188 3.0 10.0 0.00 0.00 0.00 40 1011.5
20260508181519 69 346 3.0 11.0 0.00 0.00 0.00 43 1011.7
20260508180018 69 241 3.0 15.0 0.00 0.00 0.00 42 1011.9
20260508174511 67 299 2.0 9.0 0.00 0.00 0.00 42 1012.1
20260508173008 67 288 3.0 11.0 0.00 0.00 0.00 42 1012.6
20260508171521 67 188 3.0 10.0 0.00 0.00 0.00 42 1012.7
20260508170005 68 265 5.0 15.0 0.00 0.00 0.00 42 1013.1
20260508164503 68 257 3.0 11.0 0.00 0.00 0.00 44 1013.4
20260508163107 67 132 3.0 11.0 0.00 0.00 0.00 47 1013.5
20260508161559 67 308 2.0 10.0 0.00 0.00 0.00 46 1013.7
20260508160055 66 271 3.0 13.0 0.00 0.00 0.00 49 1013.8
20260508154553 66 293 4.0 11.0 0.00 0.00 0.00 46 1014.0
20260508153049 65 306 2.0 8.0 0.00 0.00 0.00 48 1014.3
20260508151550 64 211 1.0 9.0 0.00 0.00 0.00 50 1014.4
20260508150044 64 315 2.0 8.0 0.00 0.00 0.00 50 1014.5
20260508144548 63 80 3.0 8.0 0.00 0.00 0.00 51 1014.6
20260508143049 62 315 2.0 9.0 0.00 0.00 0.00 50 1014.8
20260508141535 60 289 1.0 12.0 0.00 0.00 0.00 54 1014.9
20260508140037 59 252 2.0 8.0 0.00 0.00 0.00 56 1015.0
20260508134527 58 114 1.0 7.0 0.00 0.00 0.00 59 1015.0
20260508133023 56 169 1.0 5.0 0.00 0.00 0.00 65 1015.1
20260508131518 55 202 0.0 3.0 0.00 0.00 0.00 72 1015.1
20260508130014 52 123 1.0 3.0 0.00 0.00 0.00 74 1015.0
20260508124519 50 153 1.0 3.0 0.00 0.00 0.00 78 1015.1
20260508123005 48 164 0.0 3.0 0.00 0.00 0.00 83 1015.0
20260508121502 46 174 0.0 2.0 0.00 0.00 0.00 85 1015.0
20260508120100 45 194 0.0 3.0 0.00 0.00 0.00 87 1015.0
20260508114557 44 155 0.0 4.0 0.00 0.00 0.00 87 1014.9
20260508113105 44 285 0.0 2.0 0.00 0.00 0.00 88 1014.7
20260508111602 43 84 0.0 1.0 0.00 0.00 0.00 88 1014.7
20260508110056 43 84 0.0 3.0 0.00 0.00 0.00 88 1014.5
20260508104600 42 313 0.0 0.0 0.00 0.00 0.00 88 1014.6
20260508103055 42 313 0.0 1.0 0.00 0.00 0.00 88 1014.6
20260508101552 41 313 0.0 0.0 0.00 0.00 0.00 88 1014.5
20260508100052 41 313 0.0 0.0 0.00 0.00 0.00 88 1014.4
20260508094551 41 313 0.0 0.0 0.00 0.00 0.00 88 1014.5
20260508093055 41 313 0.0 0.0 0.00 0.00 0.00 88 1014.5
20260508091557 40 313 0.0 0.0 0.00 0.00 0.00 88 1014.6
20260508090059 40 313 0.0 0.0 0.00 0.00 0.00 88 1014.5
20260508084549 40 313 0.0 0.0 0.00 0.01 0.00 87 1014.4
20260508083047 40 313 0.0 0.0 0.00 0.01 0.00 87 1014.4
20260508081553 41 313 0.0 0.0 0.00 0.01 0.00 87 1014.3
20260508080049 41 313 0.0 0.0 0.00 0.01 0.00 87 1014.4
20260508074542 41 313 0.0 0.0 0.00 0.01 0.00 86 1014.4
20260508073047 42 313 0.0 0.0 0.00 0.01 0.00 86 1014.2
20260508071553 42 313 0.0 1.0 0.00 0.01 0.00 85 1014.4
20260508070051 42 313 0.0 1.0 0.00 0.01 0.00 85 1014.4
20260508064536 43 313 0.0 0.0 0.00 0.01 0.00 84 1014.7
20260508063032 43 313 0.0 1.0 0.00 0.01 0.00 83 1014.9
20260508061534 43 313 0.0 0.0 0.00 0.01 0.00 83 1014.9
20260508060036 43 313 0.0 0.0 0.00 0.01 0.00 83 1014.9
20260508054539 43 313 0.0 0.0 0.00 0.01 0.00 83 1015.0
20260508053029 43 313 0.0 0.0 0.00 0.01 0.00 82 1015.0
20260508051526 44 313 0.0 0.0 0.00 0.01 0.00 82 1014.9
20260508050024 44 313 0.0 1.0 0.00 0.01 0.00 81 1014.9
20260508044522 44 313 0.0 1.0 0.00 0.01 0.00 81 1014.9
20260508043022 44 313 0.0 1.0 0.00 0.01 0.00 80 1014.8
20260508041520 45 313 0.0 2.0 0.00 0.01 0.00 81 1014.8
20260508040028 45 313 0.0 1.0 0.00 0.01 0.00 79 1014.7
20260508034519 45 313 0.0 0.0 0.00 0.01 0.01 78 1014.7
20260508033016 45 313 0.0 1.0 0.00 0.01 0.01 78 1014.7
20260508031515 45 313 0.0 0.0 0.00 0.01 0.01 77 1014.6
20260508030022 46 313 0.0 0.0 0.00 0.01 0.01 77 1014.8
20260508024521 46 313 0.0 1.0 0.00 0.01 0.01 77 1014.9
20260508023019 47 313 0.0 1.0 0.00 0.01 0.01 74 1014.6
20260508021519 47 313 0.0 1.0 0.00 0.01 0.01 72 1014.7
20260508020013 48 313 0.0 1.0 0.00 0.01 0.01 70 1014.7
20260508014520 49 313 0.0 0.0 0.00 0.01 0.01 70 1014.6
20260508013012 49 313 0.0 1.0 0.00 0.01 0.01 66 1014.6
20260508011514 51 313 0.0 1.0 0.00 0.01 0.01 63 1014.4
20260508010011 52 313 0.0 1.0 0.00 0.01 0.01 59 1014.3
20260508004510 54 313 0.0 0.0 0.00 0.01 0.01 53 1014.4
20260508003011 56 313 0.0 0.0 0.00 0.01 0.01 47 1014.3
20260508001524 57 313 0.0 2.0 0.00 0.01 0.01 42 1014.1
20260508000009 58 305 1.0 7.0 0.00 0.01 0.01 41 1014.1
20260507234509 59 304 1.0 4.0 0.00 0.01 0.01 39 1014.0
20260507233020 60 270 1.0 4.0 0.00 0.01 0.01 38 1013.9
20260507231511 61 264 1.0 4.0 0.00 0.01 0.01 37 1013.8
20260507230021 61 254 1.0 9.0 0.00 0.01 0.01 37 1014.0
20260507224507 61 288 1.0 6.0 0.00 0.01 0.01 39 1013.9
20260507223005 61 294 1.0 7.0 0.00 0.01 0.01 36 1013.9
20260507221502 61 14 2.0 5.0 0.00 0.01 0.01 38 1014.0
20260507220003 62 26 3.0 9.0 0.00 0.01 0.01 37 1014.1
20260507214502 62 105 3.0 8.0 0.00 0.01 0.01 35 1014.2
20260507213104 62 342 2.0 10.0 0.00 0.01 0.01 40 1014.2
20260507213001 61 331 2.0 10.0 0.00 0.01 0.01 39 1014.2
20260507211603 62 336 2.0 5.0 0.00 0.01 0.01 36 1014.1
20260507210059 62 148 0.0 8.0 0.00 0.01 0.01 43 1014.0